User: anonymous   Login
Location: Unspecified
(0.0000°N, 0.0000°E)
Time: 18:03:46
(UTC+00:00)
Language:

CUBEBUG 2 - Orbit

View from above orbital plane
View from above orbital plane
View from above satellite
View from above satellite

Ground track
Ground track

The orbit data is extracted from the following two-line orbital elements,

1 39440U 13066AA  22332.10095687  .00002192  00000-0  29895-3 0  9994
2 39440  97.7485 283.0015 0076992 321.6181  37.9566 14.77640813485640
Epoch (UTC): 28 November 2022 02:25:22
Eccentricity: 0.0076992
inclination: 97.7485°
perigee height: 583 km
apogee height: 691 km
right ascension of ascending node: 283.0015°
argument of perigee: 321.6181°
revolutions per day: 14.77640813
mean anomaly at epoch: 37.9566°
orbit number at epoch: 48564

The dashed part of the orbit path shows where the satellite is in the earth's shadow,  

DLR